This is the latest recevied weather packets stored in our database for station/object LA1HSA-13. If no packets are shown the sender has not sent any weather packets the latest 10 day(s).
| Time | Temp. | Humidity | Pressure | Rain* | Wind** | Luminosity | Snow |
|---|---|---|---|---|---|---|---|
| 1777948203 | -0.56° C | 72% | 1007.8 hPa | 0 mm | - | - | - |
| 1777947603 | 0° C | 71% | 1007.9 hPa | 0 mm | - | - | - |
| 1777947003 | 0° C | 69% | 1007.6 hPa | 0 mm | - | - | - |
| 1777946403 | 0.56° C | 67% | 1007.7 hPa | 0 mm | - | - | - |
| 1777945803 | 1.11° C | 65% | 1007.3 hPa | 0 mm | - | - | - |
| 1777945204 | 0.56° C | 68% | 1007.6 hPa | 0 mm | - | - | - |
| 1777944603 | 1.11° C | 66% | 1007.4 hPa | 0 mm | - | - | - |
| 1777944003 | 1.67° C | 65% | 1007.3 hPa | 0 mm | - | - | - |
| 1777943403 | 1.67° C | 65% | 1007.1 hPa | 0 mm | - | - | - |
| 1777942803 | 1.67° C | 64% | 1006.9 hPa | 0 mm | - | - | - |
| 1777942204 | 2.22° C | 63% | 1006.8 hPa | 0 mm | - | - | - |
| 1777941603 | 2.22° C | 64% | 1006.9 hPa | 0 mm | - | - | - |
| 1777941004 | 2.22° C | 66% | 1006.8 hPa | 0 mm | - | - | - |
| 1777940403 | 1.67° C | 68% | 1006.8 hPa | 0 mm | - | - | - |
| 1777939803 | 2.22° C | 67% | 1006.9 hPa | 0 mm | - | - | - |
| 1777939203 | 2.22° C | 67% | 1006.6 hPa | 0 mm | - | - | - |
| 1777938603 | 2.78° C | 68% | 1006.8 hPa | 0 mm | - | - | - |
| 1777938003 | 2.78° C | 69% | 1006.9 hPa | 0 mm | - | - | - |
| 1777937403 | 2.78° C | 71% | 1006.8 hPa | 0 mm | - | - | - |
| 1777936804 | 2.78° C | 78% | 1006.7 hPa | 0 mm | - | - | - |
| 1777936203 | 2.78° C | 79% | 1006.8 hPa | 0 mm | - | - | - |
| 1777935603 | 2.22° C | 81% | 1006.7 hPa | 0 mm | - | - | - |
| 1777935003 | 2.22° C | 84% | 1006.7 hPa | 0 mm | - | - | - |
| 1777934403 | 2.22° C | 87% | 1006.7 hPa | 0 mm | - | - | - |
| 1777933804 | 2.22° C | 89% | 1006.7 hPa | 0 mm | - | - | - |
* Rain latest hour (hover to see other rain measurements)
** Current wind speed in m/s (hover to see current wind gust speed)